When you browse on this site, cookies collect data to enhance your experience and personalize the content and advertising you see.
Visit our Privacy Policy to learn more. By continuing to use the site, you agree to this use of cookies and data.
  • en France
  • Liste des pays
  • À 7 jours
  • Température de l'eau
  • Carte satellitaire
  • Carte météo
  • Widgets météo
  • user-avatar
    Se connecter

    Météo par heure à Innsbruck

    Ce jour, 20 Avril, Samedi

    Heure Température Précipitation Vent Pression Humidité
    00:00 -2°C° 0 mm 2 m/s 601 mmHg 65%
    01:00 -2°C° 0 mm 2 m/s 601 mmHg 65%
    02:00 -2°C° 0 mm 2 m/s 601 mmHg 65%
    03:00 -2°C° 0 mm 2 m/s 600 mmHg 66%
    04:00 -3°C° 0 mm 2 m/s 600 mmHg 66%
    05:00 -1°C° 0 mm 2 m/s 601 mmHg 63%
    06:00 +1°C° 0 mm 2 m/s 601 mmHg 60%
    07:00 +2°C° 0 mm 2 m/s 602 mmHg 57%
    08:00 +4°C° 0 mm 2 m/s 603 mmHg 50%
    09:00 +8°C° 0 mm 1 m/s 603 mmHg 42%
    10:00 +10°C° 0 mm 1 m/s 604 mmHg 35%
    11:00 +11°C° 0 mm 1 m/s 604 mmHg 33%
    12:00 +12°C° 0 mm 1 m/s 605 mmHg 31%
    13:00 +13°C° 0 mm 1 m/s 605 mmHg 29%
    14:00 +13°C° 0 mm 1 m/s 605 mmHg 29%
    15:00 +13°C° 0 mm 1 m/s 604 mmHg 30%
    16:00 +12°C° 0 mm 1 m/s 604 mmHg 30%
    17:00 +10°C° 0 mm 1 m/s 603 mmHg 40%
    18:00 +7°C° 0 mm 1 m/s 601 mmHg 50%
    19:00 +3°C° 0 mm 0 m/s 600 mmHg 60%
    20:00 +4°C° 0 mm 1 m/s 600 mmHg 59%
    21:00 +3°C° 0 mm 1 m/s 600 mmHg 58%
    22:00 +1°C° 0 mm 2 m/s 600 mmHg 56%
    23:00 +1°C° 0 mm 2 m/s 600 mmHg 54%

    Demain, 21 Avril, Dimanche

    Heure Température Précipitation Vent Pression Humidité
    00:00 +1°C° 0 mm 2 m/s 600 mmHg 52%
    01:00 -1°C° 0 mm 2 m/s 599 mmHg 50%
    02:00 -1°C° 0 mm 2 m/s 599 mmHg 51%
    03:00 -1°C° 0 mm 2 m/s 598 mmHg 51%
    04:00 -2°C° 0 mm 2 m/s 598 mmHg 52%
    05:00 +1°C° 0 mm 2 m/s 598 mmHg 50%
    06:00 +2°C° 0 mm 2 m/s 599 mmHg 48%
    07:00 +3°C° 0 mm 2 m/s 599 mmHg 46%
    08:00 +7°C° 0 mm 1 m/s 600 mmHg 40%
    09:00 +9°C° 0 mm 1 m/s 601 mmHg 33%
    10:00 +12°C° 0 mm 1 m/s 601 mmHg 27%
    11:00 +12°C° 0 mm 1 m/s 601 mmHg 26%
    12:00 +13°C° 0 mm 1 m/s 601 mmHg 24%
    13:00 +14°C° 0 mm 1 m/s 601 mmHg 23%
    14:00 +14°C° 0 mm 1 m/s 601 mmHg 23%
    15:00 +14°C° 0 mm 1 m/s 600 mmHg 24%
    16:00 +13°C° 0 mm 1 m/s 600 mmHg 25%
    17:00 +11°C° 0 mm 1 m/s 598 mmHg 33%
    18:00 +8°C° 0 mm 1 m/s 597 mmHg 41%
    19:00 +5°C° 0 mm 1 m/s 596 mmHg 49%
    20:00 +3°C° 0 mm 2 m/s 596 mmHg 49%
    21:00 +2°C° 0 mm 2 m/s 595 mmHg 49%
    22:00 0°C° 0 mm 3 m/s 595 mmHg 49%
    23:00 0°C° 0 mm 3 m/s 595 mmHg 54%

    Après-demain, 22 Avril, Lundi

    Heure Température Précipitation Vent Pression Humidité
    00:00 -1°C° 0 mm 3 m/s 594 mmHg 58%
    01:00 -1°C° 0 mm 3 m/s 594 mmHg 63%
    02:00 -1°C° 0 mm 3 m/s 593 mmHg 67%
    03:00 -1°C° 0 mm 3 m/s 593 mmHg 72%
    04:00 -2°C° 0 mm 3 m/s 593 mmHg 77%
    05:00 0°C° 0 mm 3 m/s 593 mmHg 71%
    06:00 +1°C° 0 mm 3 m/s 593 mmHg 66%
    07:00 +2°C° 0 mm 3 m/s 593 mmHg 60%
    08:00 +4°C° 0 mm 3 m/s 594 mmHg 51%
    09:00 +8°C° 0 mm 2 m/s 594 mmHg 41%
    10:00 +10°C° 0 mm 2 m/s 595 mmHg 32%
    11:00 +11°C° 0 mm 3 m/s 595 mmHg 31%
    12:00 +12°C° 0 mm 3 m/s 595 mmHg 31%
    13:00 +13°C° 0 mm 3 m/s 594 mmHg 31%
    14:00 +12°C° 0 mm 3 m/s 594 mmHg 33%
    15:00 +12°C° 0 mm 3 m/s 593 mmHg 35%
    16:00 +11°C° 0 mm 3 m/s 592 mmHg 37%
    17:00 +9°C° 0 mm 3 m/s 591 mmHg 44%
    18:00 +7°C° 0 mm 3 m/s 590 mmHg 51%
    19:00 +4°C° 0 mm 3 m/s 589 mmHg 58%
    20:00 +3°C° 0 mm 3 m/s 588 mmHg 63%
    21:00 +2°C° 0 mm 3 m/s 588 mmHg 69%
    22:00 0°C° 0 mm 4 m/s 587 mmHg 74%
    23:00 -1°C° 0 mm 4 m/s 587 mmHg 76%

    23 Avril, Mardi

    Heure Température Précipitation Vent Pression Humidité
    00:00 0°C° 0 mm 3 m/s 586 mmHg 77%
    01:00 0°C° 0 mm 3 m/s 586 mmHg 78%
    02:00 0°C° 0 mm 3 m/s 586 mmHg 78%
    03:00 0°C° 0 mm 3 m/s 585 mmHg 77%
    04:00 0°C° 0 mm 3 m/s 585 mmHg 77%
    05:00 +1°C° 0 mm 3 m/s 585 mmHg 74%
    06:00 +1°C° 0 mm 3 m/s 585 mmHg 72%
    07:00 +2°C° 0 mm 3 m/s 585 mmHg 69%
    08:00 +4°C° 0.1 mm 3 m/s 586 mmHg 63%
    09:00 +7°C° 0.1 mm 3 m/s 587 mmHg 57%
    10:00 +8°C° 0.1 mm 3 m/s 588 mmHg 51%
    11:00 +8°C° 0.1 mm 3 m/s 588 mmHg 52%
    12:00 +8°C° 0.1 mm 3 m/s 588 mmHg 53%
    13:00 +9°C° 0.1 mm 3 m/s 588 mmHg 54%
    14:00 +9°C° 0.1 mm 3 m/s 588 mmHg 54%
    15:00 +9°C° 0.1 mm 3 m/s 588 mmHg 53%
    16:00 +9°C° 0.1 mm 3 m/s 588 mmHg 53%
    17:00 +8°C° 0 mm 3 m/s 588 mmHg 60%
    18:00 +5°C° 0 mm 3 m/s 587 mmHg 67%
    19:00 +5°C° 0 mm 2 m/s 587 mmHg 74%
    20:00 +3°C° 0 mm 3 m/s 587 mmHg 77%
    21:00 +2°C° 0 mm 3 m/s 588 mmHg 80%
    22:00 +2°C° 0 mm 3 m/s 588 mmHg 83%
    23:00 +2°C° 0 mm 3 m/s 588 mmHg 83%

    24 Avril, Mercredi

    Heure Température Précipitation Vent Pression Humidité
    00:00 +2°C° 0 mm 3 m/s 589 mmHg 84%
    01:00 +2°C° 0 mm 3 m/s 589 mmHg 84%
    02:00 +1°C° 0.1 mm 3 m/s 589 mmHg 85%
    03:00 +1°C° 0.1 mm 3 m/s 590 mmHg 85%
    04:00 +2°C° 0.1 mm 2 m/s 590 mmHg 86%
    05:00 +3°C° 0.1 mm 2 m/s 591 mmHg 83%
    06:00 +3°C° 0.1 mm 2 m/s 591 mmHg 80%
    07:00 +3°C° 0.1 mm 3 m/s 592 mmHg 78%
    08:00 +5°C° 0 mm 3 m/s 593 mmHg 71%
    09:00 +7°C° 0 mm 3 m/s 594 mmHg 64%
    10:00 +9°C° 0 mm 3 m/s 595 mmHg 57%
    11:00 +10°C° 0 mm 3 m/s 595 mmHg 54%
    12:00 +10°C° 0 mm 3 m/s 596 mmHg 52%
    13:00 +11°C° 0 mm 3 m/s 596 mmHg 49%
    14:00 +11°C° 0 mm 3 m/s 596 mmHg 50%
    15:00 +11°C° 0 mm 3 m/s 596 mmHg 50%
    16:00 +11°C° 0 mm 3 m/s 596 mmHg 50%
    17:00 +9°C° 0 mm 3 m/s 596 mmHg 57%
    18:00 +8°C° 0 mm 3 m/s 595 mmHg 64%
    19:00 +5°C° 0 mm 3 m/s 595 mmHg 71%
    20:00 +4°C° 0 mm 3 m/s 595 mmHg 75%
    21:00 +4°C° 0 mm 3 m/s 595 mmHg 80%
    22:00 +3°C° 0 mm 3 m/s 595 mmHg 84%
    23:00 +2°C° 0 mm 3 m/s 595 mmHg 85%

    25 Avril, Jeudi

    Heure Température Précipitation Vent Pression Humidité
    00:00 +1°C° 0 mm 4 m/s 594 mmHg 85%
    01:00 +1°C° 0 mm 4 m/s 594 mmHg 85%
    02:00 +1°C° 0 mm 4 m/s 594 mmHg 85%
    03:00 +1°C° 0 mm 4 m/s 594 mmHg 84%
    04:00 +1°C° 0 mm 4 m/s 594 mmHg 84%
    05:00 +1°C° 0 mm 4 m/s 594 mmHg 81%
    06:00 +3°C° 0 mm 4 m/s 594 mmHg 79%
    07:00 +3°C° 0 mm 4 m/s 594 mmHg 76%
    08:00 +5°C° 0 mm 4 m/s 594 mmHg 68%
    09:00 +7°C° 0 mm 4 m/s 595 mmHg 60%
    10:00 +10°C° 0 mm 4 m/s 595 mmHg 52%
    11:00 +11°C° 0 mm 4 m/s 595 mmHg 50%
    12:00 +11°C° 0 mm 4 m/s 595 mmHg 48%
    13:00 +12°C° 0 mm 4 m/s 595 mmHg 47%
    14:00 +11°C° 0 mm 4 m/s 594 mmHg 50%
    15:00 +10°C° 0 mm 4 m/s 594 mmHg 54%
    16:00 +10°C° 0 mm 4 m/s 593 mmHg 57%
    17:00 +7°C° 0 mm 4 m/s 592 mmHg 64%
    18:00 +7°C° 0 mm 3 m/s 592 mmHg 70%
    19:00 +5°C° 0 mm 3 m/s 591 mmHg 76%
    20:00 +4°C° 0 mm 3 m/s 591 mmHg 79%
    21:00 +3°C° 0 mm 3 m/s 591 mmHg 82%
    22:00 +3°C° 0 mm 2 m/s 591 mmHg 86%
    23:00 +3°C° 0.1 mm 2 m/s 591 mmHg 88%
    Voir plus